This demonstration page uses our WeatherBlox Daily Observations layout. Learn more.

Left ArrowRight Arrow

Hourly Observations for September 28, 2015

Temp ( °F °C ) Dew Point ( °F °C ) Humidity (%) Winds ( mph kmh ) Pressure ( in mb ) Visibility ( mi km ) Precip ( " mm )
12:53 am 00:53 Clear 65 18.3 56 13.3 73 73 S 9 15 29.85 1011 10 16 0.00 0.00
1:53 am 01:53 Clear 64 17.8 55 12.8 73 73 S 6 9 29.85 1011 10 16 0.00 0.00
2:53 am 02:53 Clear 65 18.3 55 12.8 70 70 S 7 11 29.85 1011 10 16 0.00 0.00
3:53 am 03:53 Clear 63 17.2 54 12.2 73 73 S 6 9 29.85 1011 10 16 0.00 0.00
4:53 am 04:53 Clear 62 16.7 54 12.2 75 75 S 7 11 29.84 1011 10 16 0.00 0.00
5:53 am 05:53 Clear 61 16.1 54 12.2 78 78 S 7 11 29.85 1011 10 16 0.00 0.00
6:53 am 06:53 Clear 60 15.6 54 12.2 80 80 S 5 7 29.87 1012 10 16 0.00 0.00
7:53 am 07:53 Sunny 60 15.6 54 12.2 80 80 S 9 15 29.88 1012 9 14 0.00 0.00
8:53 am 08:53 Sunny 64 17.8 55 12.8 73 73 SSW 5 7 29.90 1012 10 16 0.00 0.00
9:53 am 09:53 Sunny 70 21.1 57 13.9 64 64 SW 5 7 29.90 1013 10 16 0.00 0.00
10:53 am 10:53 Sunny 75 23.9 57 13.9 54 54 SSW 6 9 29.89 1012 10 16 0.00 0.00
11:53 am 11:53 Sunny 79 26.1 57 13.9 47 47 SW 6 9 29.89 1012 10 16 0.00 0.00
12:53 pm 12:53 Sunny 82 27.8 56 13.3 41 41 VRB 3 6 29.88 1012 10 16 0.00 0.00
1:53 pm 13:53 Sunny 85 29.4 57 13.9 39 39 Calm 29.87 1012 10 16 0.00 0.00
2:53 pm 14:53 Sunny 88 31.1 55 12.8 33 33 S 8 13 29.84 1011 10 16 0.00 0.00
3:53 pm 15:53 Mostly Sunny 88 31.1 55 12.8 33 33 SSW 8 13 29.83 1010 10 16 0.00 0.00
4:53 pm 16:53 Sunny 86 30 54 12.2 33 33 SSE 7 11 29.83 1010 10 16 0.00 0.00
5:53 pm 17:53 Sunny 85 29.4 55 12.8 36 36 SE 7 11 29.83 1010 10 16 0.00 0.00
6:53 pm 18:53 Sunny 83 28.3 55 12.8 38 38 SSE 7 11 29.84 1011 10 16 0.00 0.00
7:53 pm 19:53 Clear 78 25.6 55 12.8 45 45 SSE 5 7 29.87 1012 10 16 0.00 0.00
8:53 pm 20:53 Mostly Clear 76 24.4 58 14.4 54 54 N 8 13 29.90 1013 10 16 0.00 0.00
9:53 pm 21:53 Mostly Clear 72 22.2 61 16.1 68 68 NNE 8 13 29.93 1014 10 16 0.00 0.00
10:53 pm 22:53 Clear 69 20.6 60 15.6 73 73 NNE 13 20 29.94 1014 10 16 0.00 0.00
11:53 pm 23:53 Clear 65 18.3 59 15 81 81 NNE 12 19 29.97 1015 10 16 0.00 0.00

Powered by AerisWeather